WetterOnline ( https://www.wetteronline.de )

Wetter aktuell Schöna

Aktuelles Wetter: Lichtenhain/Mittelndorf (352m)

6-stündlich | Neueste Meldungen
Ortszeit Temperatur Wetter
Do, 18.07. 2:00 11.8° C bedeckt
Mi, 17.07. 20:00 19.6° C wolkig
Mi, 17.07. 14:00 19.3° C wolkig
Mi, 17.07. 8:00 13.9° C bedeckt
Mi, 17.07. 2:00 13.3° C bewölkt
Di, 16.07. 20:00 17.2° C wolkig
Di, 16.07. 14:00 15.3° C bedeckt
Di, 16.07. 8:00 12.9° C bedeckt
Ortszeit Temperatur Wetter
Do, 18.07. 5:00 10.1° C leicht bewölkt
Do, 18.07. 4:50 10.1° C leicht bewölkt
Do, 18.07. 4:40 10.9° C leicht bewölkt
Do, 18.07. 4:30 11.2° C bewölkt
Do, 18.07. 4:20 11.2° C bewölkt
Do, 18.07. 4:10 10.8° C bewölkt
Do, 18.07. 4:00 11.6° C bewölkt
Do, 18.07. 3:30 11.5° C fast wolkenlos
Do, 18.07. 3:00 11.4° C fast wolkenlos
Do, 18.07. 2:30 11.5° C fast wolkenlos
Do, 18.07. 2:00 11.8° C bedeckt
Ortszeit Relative Feuchte Sichtweite
Do, 18.07. 2:00 86% 25 km
Mi, 17.07. 20:00 49% 70 km
Mi, 17.07. 14:00 50% 30 km
Mi, 17.07. 8:00 85% 12 km
Mi, 17.07. 2:00 87% 22 km
Di, 16.07. 20:00 61% 29 km
Di, 16.07. 14:00 67% 40 km
Di, 16.07. 8:00 77% 20 km
Ortszeit Relative Feuchte Sichtweite
Do, 18.07. 5:00 91% 16 km
Do, 18.07. 4:50 91% -
Do, 18.07. 4:40 86% -
Do, 18.07. 4:30 86% 26 km
Do, 18.07. 4:20 86% -
Do, 18.07. 4:10 87% -
Do, 18.07. 4:00 86% 24 km
Do, 18.07. 3:30 86% 26 km
Do, 18.07. 3:00 88% 22 km
Do, 18.07. 2:30 86% 21 km
Do, 18.07. 2:00 86% 25 km
Ortszeit Niederschlagsmenge Niederschlagsart
Do, 18.07. 2:00 0.0 l/m2 in 6 Std. -
Mi, 17.07. 20:00 0.0 l/m2 in 12 Std. -
Mi, 17.07. 14:00 0.0 l/m2 in 6 Std. -
Mi, 17.07. 8:00 0.0 l/m2 in 12 Std. -
Mi, 17.07. 2:00 0.0 l/m2 in 6 Std. -
Di, 16.07. 20:00 0.1 l/m2 in 12 Std. -
Di, 16.07. 14:00 0.1 l/m2 in 6 Std. Regen
Di, 16.07. 8:00 0.0 l/m2 in 12 Std. -
Ortszeit Niederschlagsmenge Niederschlagsart
Do, 18.07. 5:00 0.0 l/m2 in 1 Std. -
Do, 18.07. 4:50 keine Meldung -
Do, 18.07. 4:40 keine Meldung -
Do, 18.07. 4:30 0.0 l/m2 in 1 Std. -
Do, 18.07. 4:20 keine Meldung -
Do, 18.07. 4:10 keine Meldung -
Do, 18.07. 4:00 0.0 l/m2 in 1 Std. -
Do, 18.07. 3:30 0.0 l/m2 in 1 Std. -
Do, 18.07. 3:00 0.0 l/m2 in 1 Std. -
Do, 18.07. 2:30 0.0 l/m2 in 1 Std. -
Do, 18.07. 2:00 0.0 l/m2 in 1 Std. -
Ortszeit Stärke Spitze Richtung
km/h Bft. km/h Grad Sektor
Do, 18.07. 2:00 4 1 11 70° O
Mi, 17.07. 20:00 7 2 22 10° N
Mi, 17.07. 14:00 13 3 30 320° NW
Mi, 17.07. 8:00 11 2 18 340° N
Mi, 17.07. 2:00 9 2 22 290° W
Di, 16.07. 20:00 11 2 36 300° NW
Di, 16.07. 14:00 18 3 36 290° W
Di, 16.07. 8:00 13 3 20 280° W
Ortszeit Stärke Spitze Richtung
km/h Bft. km/h Grad Sektor
Do, 18.07. 5:00 4 1 7 140° SO
Do, 18.07. 4:50 4 1 - 140° SO
Do, 18.07. 4:40 7 2 - 70° O
Do, 18.07. 4:30 4 1 7 110° O
Do, 18.07. 4:20 4 1 - 110° O
Do, 18.07. 4:10 2 1 - 50° NO
Do, 18.07. 4:00 4 1 7 110° O
Do, 18.07. 3:30 7 2 7 130° SO
Do, 18.07. 3:00 0 0 4 - -
Do, 18.07. 2:30 0 0 4 - -
Do, 18.07. 2:00 4 1 7 70° O
Ortszeit Untergrenze Bedeckung Gattung
total tief tief mittel hoch
Do, 18.07. 2:00 3300 m 8/8 8/8 - - -
Mi, 17.07. 20:00 3000 m 7/8 3/8 - - -
Mi, 17.07. 14:00 1200 m 7/8 5/8 - - -
Mi, 17.07. 8:00 270 m 8/8 8/8 - - -
Mi, 17.07. 2:00 360 m 8/8 7/8 - - -
Di, 16.07. 20:00 1290 m 6/8 6/8 - - -
Di, 16.07. 14:00 780 m 8/8 8/8 - - -
Di, 16.07. 8:00 870 m 8/8 8/8 - - -
Ortszeit Bedeckungsgrad in Achtel und Wolkenuntergrenze
Do, 18.07. 5:00 2(2100m)
Do, 18.07. 4:50 2(2100m)
Do, 18.07. 4:40 4(2100m) 4(2700m)
Do, 18.07. 4:30 5(2100m) 7(2700m)
Do, 18.07. 4:20 5(2100m) 7(2700m)
Do, 18.07. 4:10 4(2100m) 7(2700m)
Do, 18.07. 4:00 5(2100m) 7(2700m)
Do, 18.07. 3:30 2(2100m)
Do, 18.07. 3:00 2(7500m)
Do, 18.07. 2:30 1(7500m)
Do, 18.07. 2:00 1(3300m) 7(6000m) 8(6900m)
Ortszeit Luftdruck NN (hPa) Tendenz (hPa in 3 Std.)
Do, 18.07. 2:00 1014 + 0,3
Mi, 17.07. 20:00 1013 - 0,7
Mi, 17.07. 14:00 1014 - 0,3
Mi, 17.07. 8:00 1015 - 0,1
Mi, 17.07. 2:00 1016 + 0,6
Di, 16.07. 20:00 1015 - 0,4
Di, 16.07. 14:00 1016 0,0
Di, 16.07. 8:00 1016 0,0
Ortszeit Luftdruck NN (hPa) Tendenz (hPa in 3 Std.)
Do, 18.07. 5:00 1014 - 0,5
Do, 18.07. 4:50 1014 keine Meldung
Do, 18.07. 4:40 1014 keine Meldung
Do, 18.07. 4:30 1014 - 0,5
Do, 18.07. 4:20 1014 keine Meldung
Do, 18.07. 4:10 1014 keine Meldung
Do, 18.07. 4:00 1014 - 0,4
Do, 18.07. 3:30 1014 - 0,2
Do, 18.07. 3:00 1014 - 0,1
Do, 18.07. 2:30 1014 + 0,2
Do, 18.07. 2:00 1014 + 0,3
Ortszeit Schneehöhe (cm)
Do, 18.07. 2:00 -
Mi, 17.07. 20:00 -
Mi, 17.07. 14:00 -
Mi, 17.07. 8:00 -
Mi, 17.07. 2:00 -
Di, 16.07. 20:00 -
Di, 16.07. 14:00 -
Di, 16.07. 8:00 -
Ortszeit Schneehöhe (cm)
Do, 18.07. 5:00 -
Do, 18.07. 4:50 -
Do, 18.07. 4:40 -
Do, 18.07. 4:30 -
Do, 18.07. 4:20 -
Do, 18.07. 4:10 -
Do, 18.07. 4:00 -
Do, 18.07. 3:30 -
Do, 18.07. 3:00 -
Do, 18.07. 2:30 -
Do, 18.07. 2:00 -
Link zu dieser Seite / Seite empfehlen

Das Wetter in ...